TimeAKST,TemperatureF,Dew PointF,Humidity,Sea Level PressureIn,VisibilityMPH,Wind Direction,Wind SpeedMPH,Gust SpeedMPH,PrecipitationIn,Events,Conditions,WindDirDegrees,DateUTC
12:53 AM,5.0,1.9,87,29.48,0.8,East,26.5,36.8,0.02,Snow,Light Snow,80,2012-12-17 09:53:00
1:09 AM,5.0,1.4,85,29.46,0.5,East,25.3,35.7,0.01,Snow,Snow,80,2012-12-17 10:09:00
1:53 AM,6.1,3.0,87,29.42,0.5,East,25.3,38.0,0.03,Snow,Snow,80,2012-12-17 10:53:00
3:12 AM,6.8,3.2,85,29.38,0.8,East,28.8,36.8,0.00,Snow,Light Snow,90,2012-12-17 12:12:00
3:53 AM,7.0,3.9,87,29.36,0.5,East,24.2,34.5,0.01,Snow,Snow,80,2012-12-17 12:53:00
4:26 AM,6.8,5.0,92,29.33,0.5,East,26.5,35.7,0.00,Snow,Snow,80,2012-12-17 13:26:00
4:36 AM,6.8,3.2,85,29.32,0.8,East,28.8,36.8,0.00,Snow,Light Snow,80,2012-12-17 13:36:00
4:45 AM,6.8,5.0,92,29.31,0.5,East,27.6,43.7,0.01,Snow,Snow,80,2012-12-17 13:45:00
4:53 AM,7.0,5.0,92,29.31,0.5,East,28.8,36.8,0.01,Snow,Snow,80,2012-12-17 13:53:00
5:29 AM,8.6,6.8,92,29.28,0.8,East,23.0,33.4,0.01,Snow,Light Snow,80,2012-12-17 14:29:00
5:47 AM,8.6,6.8,92,29.27,0.5,East,23.0,31.1,0.02,Snow,Snow,80,2012-12-17 14:47:00
5:53 AM,8.1,6.1,92,29.27,0.5,East,25.3,34.5,0.02,Snow,Snow,80,2012-12-17 14:53:00
6:41 AM,8.6,5.0,85,29.25,0.8,East,24.2,34.5,0.01,Snow,Light Snow,80,2012-12-17 15:41:00
6:53 AM,8.1,6.1,92,29.24,0.8,ENE,23.0,32.2,0.01,Snow,Light Snow,70,2012-12-17 15:53:00
7:53 AM,9.0,6.1,88,29.20,0.5,East,25.3,-,0.01,Snow,Snow,80,2012-12-17 16:53:00
8:41 AM,10.4,6.8,85,29.16,0.8,ENE,27.6,34.5,0.01,Snow,Light Snow,70,2012-12-17 17:41:00
8:53 AM,10.0,8.1,92,29.16,0.5,ENE,27.6,34.5,0.01,Snow,Snow,70,2012-12-17 17:53:00
9:02 AM,10.4,8.6,92,29.14,0.8,ENE,24.2,34.5,0.00,Snow,Light Snow,70,2012-12-17 18:02:00
9:31 AM,12.2,10.4,92,29.12,1.0,East,20.7,31.1,0.02,Snow,Light Snow,80,2012-12-17 18:31:00
9:53 AM,15.1,12.9,91,29.13,2.0,South,15.0,-,0.03,Snow,Light Snow,170,2012-12-17 18:53:00
10:55 AM,10.4,8.6,92,29.10,2.5,SE,6.9,-,0.00,Snow,Light Snow,130,2012-12-17 19:55:00
11:53 AM,9.0,6.1,88,29.10,2.5,SE,10.4,-,0.00,Snow,Light Snow,130,2012-12-17 20:53:00
12:48 PM,10.4,6.8,85,29.08,1.0,ESE,10.4,-,0.00,Snow,Light Snow,110,2012-12-17 21:48:00
12:53 PM,10.4,6.8,85,29.08,1.0,East,9.2,-,N/A,Snow,Light Snow,100,2012-12-17 21:53:00
3:53 PM,3.9,-0.0,84,29.16,5.0,NW,5.8,-,0.00,,Scattered Clouds,310,2012-12-18 00:53:00
4:53 PM,1.0,-0.9,91,29.19,10.0,WSW,9.2,-,N/A,,Clear,250,2012-12-18 01:53:00
5:53 PM,1.0,-2.0,87,29.22,10.0,West,12.7,-,N/A,,Scattered Clouds,270,2012-12-18 02:53:00
6:53 PM,-0.0,-4.0,83,29.24,10.0,West,15.0,-,N/A,,Scattered Clouds,270,2012-12-18 03:53:00
7:53 PM,-0.9,-5.1,83,29.27,10.0,WSW,12.7,-,N/A,,Scattered Clouds,250,2012-12-18 04:53:00
8:53 PM,-0.4,-7.6,72,29.30,8.0,West,28.8,-,N/A,,Scattered Clouds,270,2012-12-18 05:53:00
9:53 PM,1.0,-7.1,69,29.32,10.0,WNW,19.6,-,0.00,,Scattered Clouds,290,2012-12-18 06:53:00
10:53 PM,-0.9,-9.9,66,29.35,10.0,NNW,6.9,-,N/A,,Scattered Clouds,340,2012-12-18 07:53:00
11:53 PM,-2.2,-9.4,71,29.39,10.0,WNW,12.7,18.4,N/A,,Scattered Clouds,290,2012-12-18 08:53:00